New York Downtown Manhattan/w, NY

10:31 AM EST on December 06, 2019 (GMT -0500)
New York Downtown Manhattan/w

Weather History for KJRB - August, 2019

Change the Weather History Date:

Friday, August 2, 2019

  Actual Average (KEWR) Record (KEWR)
Temperature  
Mean Temperature 82 °F -  
Max Temperature 88 °F 87 °F 100 °F (2006)
Min Temperature 75 °F 70 °F 58 °F (1953)
Cooling Degree Days 16    
Growing Degree Days 32 (Base 50)    
Moisture  
Dew Point 66 °F    
Average Humidity 64    
Maximum Humidity 79    
Minimum Humidity 39    
Precipitation  
Precipitation 0.02 in - - ()
Sea Level Pressure  
Sea Level Pressure 30.12 in    
Wind  
Wind Speed 5 mph (SSW)    
Max Wind Speed 10 mph    
Max Gust Speed 41 mph    
Visibility 10 miles    
Events      
Averages and records for this station are not official NWS values.
T = Trace of Precipitation, MM = Missing Value Source: NWS Daily Summary

Daily Weather History Graph

Daily Weather History Graph

Search for Another Location

Airport or City:

Astronomy

Aug. 02, 2019 Rise Set
Actual Time 5:53 AM EDT 8:10 PM EDT
Civil Twilight 5:22 AM EDT 8:41 PM EDT
Nautical Twilight 4:44 AM EDT 9:18 PM EDT
Astronomical Twilight 4:03 AM EDT 10:00 PM EDT
Moon 7:29 AM EDT (8/2) 9:36 PM EDT (8/2)
Length of Visible Light 15h 18m
Length of Day
14h 17m
Waxing Crescent, 4% of the Moon is Illuminated
Aug 2
Waxing Crescent
Aug 7
First Quarter
Aug 15
Full
Aug 23
Last Quarter
Aug 30
New

Hourly Weather History & Observations

Time (EDT) Temp. Heat Index Dew Point Humidity Pressure Visibility Wind Dir Wind Speed Gust Speed Precip Events Conditions
12:56 AM 77.0 °F - 63.0 °F 62% 30.11 in 10.0 mi WSW 3.5 mph - N/A   Clear
1:56 AM 75.9 °F - 64.0 °F 67% 30.11 in 10.0 mi West 4.6 mph - N/A   Scattered Clouds
2:56 AM 75.9 °F - 64.0 °F 67% 30.11 in 10.0 mi West 3.5 mph - N/A   Scattered Clouds
3:56 AM 75.9 °F - 64.9 °F 69% 30.11 in 10.0 mi WSW 3.5 mph - N/A   Mostly Cloudy
4:56 AM 75.0 °F - 66.9 °F 76% 30.11 in 10.0 mi Calm Calm - N/A   Clear
5:56 AM 75.9 °F - 68.0 °F 76% 30.11 in 10.0 mi Calm Calm - N/A   Overcast
6:56 AM 75.9 °F - 66.9 °F 74% 30.12 in 10.0 mi East 5.8 mph - N/A   Partly Cloudy
7:56 AM 77.0 °F - 68.0 °F 74% 30.14 in 10.0 mi NE 5.8 mph - N/A   Partly Cloudy
8:56 AM 78.1 °F - 66.9 °F 68% 30.14 in 10.0 mi NE 6.9 mph - N/A   Clear
9:56 AM 80.1 °F 82.7 °F 68.0 °F 67% 30.15 in 10.0 mi NE 5.8 mph - N/A   Partly Cloudy
10:56 AM 81.0 °F 83.8 °F 68.0 °F 65% 30.15 in 10.0 mi Variable 4.6 mph - N/A   Clear
11:56 AM 81.0 °F 83.8 °F 68.0 °F 65% 30.14 in 10.0 mi WSW 4.6 mph - N/A   Clear
12:56 PM 82.9 °F 85.4 °F 66.9 °F 58% 30.13 in 10.0 mi West 4.6 mph - N/A   Clear
1:56 PM 86.0 °F 88.8 °F 66.9 °F 53% 30.12 in 10.0 mi West 5.8 mph - 0.01 in   Clear
2:56 PM 87.1 °F 86.7 °F 60.1 °F 40% 30.12 in 10.0 mi South 8.1 mph - N/A   Partly Cloudy
3:56 PM 88.0 °F 87.6 °F 60.1 °F 39% 30.11 in 10.0 mi SSW 6.9 mph 41.4 mph N/A   Mostly Cloudy
4:56 PM 86.0 °F 85.4 °F 59.0 °F 40% 30.10 in 10.0 mi South 6.9 mph 16.1 mph N/A   Clear
5:56 PM 84.9 °F 85.0 °F 61.0 °F 44% 30.10 in 10.0 mi South 10.4 mph - N/A   Clear
6:56 PM 82.0 °F 83.1 °F 63.0 °F 52% 30.10 in 10.0 mi South 8.1 mph - 0.01 in   Clear
7:56 PM 79.0 °F - 66.9 °F 66% 30.09 in 10.0 mi SSE 4.6 mph - N/A   Clear
8:56 PM 78.1 °F - 69.1 °F 74% 30.11 in 10.0 mi South 3.5 mph - N/A   Clear
9:56 PM 77.0 °F - 70.0 °F 79% 30.11 in 10.0 mi South 6.9 mph - N/A   Clear
10:56 PM 75.9 °F - 68.0 °F 76% 30.11 in 10.0 mi SW 4.6 mph - N/A   Clear
11:56 PM 75.0 °F - 66.9 °F 76% 30.10 in 10.0 mi SSW 5.8 mph - N/A   Clear